Regional Weather Roundup
Issued by NWS

Home | Current Version | Previous Version | Graphics & Text | Print | Product List | Glossary On
Versions: 1 2 3 4 5 6 7 8 9 10 11 12 13 14 15 16 17 18 19 20 21 22 23 24 25 26 27
000
ASUS45 KCYS 211510
RWRWY

WYOMING REGIONAL WEATHER ROUNDUP
NATIONAL WEATHER SERVICE CHEYENNE WY
900 AM MDT THU SEP 21 2017

NOTE:  "FAIR" INDICATES FEW OR NO CLOUDS BELOW 12,000 FEET
WITH NO SIGNIFICANT WEATHER AND/OR OBSTRUCTIONS TO VISIBILITY.

WYZ001-211600-
YELLOWSTONE NATIONAL PARK

CITY           SKY/WX    TMP DP  RH WIND       PRES   REMARKS
LK YELLOWSTONE NOT AVBL
W YELLOWSTONE  NOT AVBL

$$
WYZ002>013-054>058-071-098>099-211600-
NORTHERN WYOMING

CITY           SKY/WX    TMP DP  RH WIND       PRES   REMARKS
JACKSON        CLOUDY    33  32  96 CALM      29.79F
CODY           LGT RAIN  42  41  96 N8        29.80R
GREYBULL       CLOUDY    50  45  83 W9        29.73R
WORLAND        CLOUDY    52  45  77 VRB5      29.74R
SHERIDAN       CLOUDY    53  42  66 NW13      29.78R
BUFFALO        FAIR      50  38  63 N15       29.79R
GILLETTE       FAIR      52  39  61 N12       29.74R
HULETT         FAIR      54  36  50 N7        29.75R
NEWCASTLE      FAIR      63  32  31 S9G16     29.72R

$$
WYZ014>020-022>026-101>103-211600-
CENTRAL WYOMING

CITY           SKY/WX    TMP DP  RH WIND       PRES   REMARKS
BIG PINEY      FAIR      39  38  96 CALM      29.79S
PINEDALE       CLOUDY    41  36  81 CALM      29.80S
DUBOIS         CLOUDY    36  34  93 NW6       29.77R WCI  31
LANDER           N/A    N/A N/A N/A MISG      29.73R
RIVERTON       FAIR      46  37  71 S6        29.74R
CASPER         FAIR      51  34  52 N8        29.77R
DOUGLAS        FAIR      72  30  21 SW10      29.72R

$$
WYZ021-027>030-104>119-211600-
SOUTHERN WYOMING

CITY           SKY/WX    TMP DP  RH WIND       PRES   REMARKS
EVANSTON       PTSUNNY   45  39  79 W7        29.78R
KEMMERER         N/A     41  36  81 CALM      29.80S
FORT BRIDGER   FAIR      46  38  73 N5        29.82R
ROCK SPRINGS   FAIR      56  32  40 SW15      29.77F
DIXON          FAIR      64  29  26 S18G29    29.86R
RAWLINS        FAIR      62  30  29 SW21G31   29.81S
SARATOGA       FAIR      64  25  22 SE14G28   29.84R
LARAMIE        FAIR      65  22  19 SW20      29.87R
CHEYENNE       FAIR      62  35  36 CALM      29.83R
TORRINGTON     FAIR      57  40  52 SE6       29.73R
PINE BLUFFS    FAIR      52  37  58 CALM      29.80S

$$




USA.gov is the U.S. government's official web portal to all federal, state and local government web resources and services.